This demonstration page uses our WeatherBlox Daily Observations layout. Learn more.

40.92945, -100.16068

Hourly Observations for March 4, 2019

Temp ( °F °C ) Dew Point ( °F °C ) Humidity (%) Winds ( mph kmh ) Pressure ( in mb ) Visibility ( mi km ) Precip ( " mm )
12:15 am 00:15 Clear -10 -23.4 -18 -27.5 69 69 NW 12 19 30.77 1042 10 16.09344 0 0
12:35 am 00:35 Clear -10 -23.5 -18 -27.6 69 69 WNW 8 13 30.77 1042 10 16.09344 0 0
12:55 am 00:55 Clear -10 -23.6 -18 -27.8 68 68 WNW 7 11 30.77 1042 10 16.09344 0 0
1:15 am 01:15 Clear -13 -25.2 -21 -29.3 69 69 WNW 9 15 30.77 1042 10 16.09344 0 0
1:35 am 01:35 Clear -13 -25 -20 -28.9 70 70 WNW 13 20 30.77 1042 10 16.09344 0 0
1:55 am 01:55 Clear -14 -25.3 -21 -29.3 69 69 WNW 10 17 30.77 1042 10 16.09344 0 0
2:15 am 02:15 Clear -12 -24.6 -19 -28.5 70 70 W 13 20 30.77 1042 10 16.09344 0 0
2:35 am 02:35 Clear -11 -23.7 -18 -27.5 71 71 WNW 14 22 30.77 1042 10 16.09344 0 0
2:55 am 02:55 Clear -13 -25 -19 -28.5 73 73 WNW 10 17 30.74 1041 10 16.09344 0 0
3:15 am 03:15 Clear -12 -24.7 -19 -28.2 73 73 WNW 14 22 30.74 1041 10 16.09344 0 0
3:35 am 03:35 Clear -12 -24.7 -19 -28.3 72 72 WNW 13 20 30.74 1041 10 16.09344 0 0
3:55 am 03:55 Clear -10 -23.4 -16 -26.9 73 73 WNW 15 24 30.74 1041 10 16.09344 0 0
4:15 am 04:15 Clear -11 -23.7 -18 -27.6 70 70 WNW 15 24 30.74 1041 10 16.09344 0 0
4:35 am 04:35 Clear -10 -23.5 -18 -27.6 69 69 NW 14 22 30.74 1041 10 16.09344 0 0
4:55 am 04:55 Clear -12 -24.6 -20 -28.7 69 69 NW 17 28 30.74 1041 10 16.09344 0 0
5:15 am 05:15 Clear -12 -24.5 -19 -28.5 69 69 NW 12 19 30.74 1041 10 16.09344 0 0
5:35 am 05:35 Clear -13 -24.8 -20 -29 68 68 NW 13 20 30.74 1041 10 16.09344 0 0
5:55 am 05:55 Clear -13 -25 -21 -29.2 68 68 WNW 14 22 30.74 1041 10 16.09344 0 0
6:15 am 06:15 Clear -14 -25.6 -22 -29.8 68 68 WNW 14 22 30.74 1041 10 16.09344 0 0
6:35 am 06:35 Clear -14 -25.5 -22 -29.8 67 67 WNW 13 20 30.74 1041 10 16.09344 0 0
6:55 am 06:55 Clear -14 -25.3 -21 -29.5 68 68 WNW 13 20 30.74 1041 10 16.09344 0 0
7:15 am 07:15 Sunny -12 -24.5 -20 -29 66 66 WNW 12 19 30.74 1041 10 16.09344 0 0
7:35 am 07:35 Sunny -12 -24.5 -20 -29.1 66 66 W 6 9 30.74 1041 10 16.09344 0 0
7:55 am 07:55 Sunny -13 -25 -21 -29.4 67 67 W 3 6 30.74 1041 10 16.09344 0 0
8:15 am 08:15 Sunny -11 -23.8 -19 -28.4 66 66 Calm 30.77 1042 10 16.09344 0 0
8:35 am 08:35 Sunny -9 -22.7 -18 -27.8 63 63 WNW 9 15 30.71 1040 10 16.09344 0 0
8:55 am 08:55 Sunny -7 -21.7 -16 -26.7 64 64 WNW 12 19 30.74 1041 10 16.09344 0 0
9:15 am 09:15 Sunny -6 -21 -15 -26.2 63 63 WNW 12 19 30.74 1041 10 16.09344 0 0
9:35 am 09:35 Sunny -5 -20.7 -15 -26 63 63 WNW 9 15 30.74 1041 10 16.09344 0 0
9:55 am 09:55 Sunny -3 -19.7 -13 -25 63 63 WNW 15 24 30.68 1039 10 16.09344 0 0
10:15 am 10:15 Sunny -2 -18.8 -12 -24.4 62 62 WNW 15 24 30.68 1039 10 16.09344 0 0
10:35 am 10:35 Sunny 0 -17.9 -11 -23.8 60 60 NW 12 19 30.65 1038 10 16.09344 0 0
10:55 am 10:55 Sunny 1 -17 -9 -23 60 60 WNW 15 24 30.65 1038 10 16.09344 0 0
11:15 am 11:15 Sunny 3 -16 -8 -22 60 60 WNW 16 26 30.65 1038 10 16.09344 0 0
11:35 am 11:35 Sunny 5 -15 -6 -21 60 60 WNW 15 24 30.62 1037 10 16.09344 0 0
11:55 am 11:55 Sunny 6 -14.2 -5 -20.3 60 60 NW 12 19 30.62 1037 10 16.09344 0 0
12:15 pm 12:15 Sunny 8 -13.3 -5 -20.3 56 56 NW 9 15 30.56 1035 10 16.09344 0 0
12:35 pm 12:35 Sunny 10 -12.5 -3 -19.4 57 57 WNW 10 17 30.56 1035 10 16.09344 0 0
12:55 pm 12:55 Sunny 11 -11.7 -2 -18.7 56 56 WNW 9 15 30.56 1035 10 16.09344 0 0
1:15 pm 13:15 Sunny 11 -11.5 -1 -18.3 57 57 WNW 6 9 30.53 1034 10 16.09344 0 0
1:35 pm 13:35 Sunny 12 -11.2 0 -17.9 58 58 WNW 5 7 30.53 1034 10 16.09344 0 0
1:55 pm 13:55 Sunny 13 -10.4 0 -17.6 56 56 W 9 15 30.5 1033 10 16.09344 0 0
2:15 pm 14:15 Sunny 14 -10 1 -17.3 56 56 W 8 13 30.48 1032 10 16.09344 0 0
2:35 pm 14:35 Sunny 15 -9.7 1 -17.4 54 54 W 10 17 30.48 1032 10 16.09344 0 0
2:55 pm 14:55 Sunny 15 -9.5 2 -16.8 56 56 W 10 17 30.48 1032 10 16.09344 0 0
3:15 pm 15:15 Sunny 15 -9.7 2 -16.8 57 57 W 8 13 30.48 1032 10 16.09344 0 0
3:35 pm 15:35 Sunny 15 -9.2 2 -16.8 54 54 W 13 20 30.48 1032 10 16.09344 0 0
3:55 pm 15:55 Sunny 16 -9 1 -17.2 52 52 W 12 19 30.48 1032 10 16.09344 0 0
4:15 pm 16:15 Sunny 16 -8.9 2 -16.8 53 53 W 10 17 30.48 1032 10 16.09344 0 0
4:35 pm 16:35 Sunny 16 -8.9 2 -16.7 54 54 W 8 13 30.48 1032 10 16.09344 0 0
4:55 pm 16:55 Sunny 16 -9.1 2 -16.7 54 54 W 8 13 30.48 1032 10 16.09344 0 0
5:15 pm 17:15 Sunny 14 -10 2 -16.5 59 59 WNW 7 11 30.45 1031 10 16.09344 0 0
5:35 pm 17:35 Sunny 13 -10.4 2 -16.7 60 60 WNW 5 7 30.45 1031 10 16.09344 0 0
5:55 pm 17:55 Sunny 12 -11.2 1 -17.4 61 61 W 10 17 30.45 1031 10 16.09344 0 0
6:15 pm 18:15 Sunny 10 -12.5 -1 -18.5 61 61 NNW 3 6 30.48 1032 10 16.09344 0 0
6:35 pm 18:35 Clear 8 -13.6 -2 -19 64 64 Calm 30.48 1032 10 16.09344 0 0
6:55 pm 18:55 Clear 7 -13.9 -2 -19.1 65 65 Calm 30.48 1032 10 16.09344 0 0
7:15 pm 19:15 Clear 6 -14.5 -3 -19.6 65 65 WNW 6 9 30.5 1033 10 16.09344 0 0
7:35 pm 19:35 Clear 6 -14.7 -3 -19.7 66 66 W 8 13 30.5 1033 10 16.09344 0 0
7:55 pm 19:55 Clear 5 -14.9 -4 -19.9 66 66 W 8 13 30.5 1033 10 16.09344 0 0
8:15 pm 20:15 Clear 3 -16 -5 -20.5 69 69 W 10 17 30.5 1033 10 16.09344 0 0
8:35 pm 20:35 Clear 4 -15.3 -4 -20.1 67 67 W 6 9 30.5 1033 10 16.09344 0 0
8:55 pm 20:55 Clear 4 -15.7 -4 -20.2 69 69 W 9 15 30.5 1033 10 16.09344 0 0
9:15 pm 21:15 Clear 2 -16.9 -6 -21.3 69 69 NW 7 11 30.53 1034 10 16.09344 0 0
9:35 pm 21:35 Clear -2 -18.8 -9 -22.9 70 70 NNW 7 11 30.53 1034 10 16.09344 0 0
9:55 pm 21:55 Clear -4 -19.9 -10 -23.1 76 76 NW 7 11 30.59 1036 10 16.09344 0 0
10:15 pm 22:15 Clear -5 -20.4 -10 -23.6 76 76 NW 7 11 30.59 1036 10 16.09344 0 0
10:35 pm 22:35 Clear -2 -18.9 -8 -22.3 75 75 N 8 13 30.56 1035 10 16.09344 0 0
10:55 pm 22:55 Clear -3 -19.4 -9 -22.7 75 75 NNW 9 15 30.59 1036 10 16.09344 0 0
11:15 pm 23:15 Clear -2 -19 -8 -22.4 75 75 NW 10 17 30.56 1035 10 16.09344 0 0
11:35 pm 23:35 Clear -1 -18.4 -7 -21.6 76 76 NW 10 17 30.53 1034 10 16.09344 0 0
11:55 pm 23:55 Clear -5 -20.3 -11 -23.8 74 74 WNW 8 13 30.56 1035 10 16.09344 0 0

Powered by AerisWeather